• In Belarus
  • List of Countries
  • For 7 days
  • Water Temperature
  • Satellite Maps
  • Weather Map
  • Weather Widgets
  • user-avatar
    Login

    Hourly Weather Achaea

    Today, 23 September, Sunday

    Time Temperature Precipitation Wind Pressure Humidity
    00:00 +18°C° 0 mm 1 mps 688 mmHg 74%
    01:00 +18°C° 0 mm 1 mps 688 mmHg 76%
    02:00 +18°C° 0 mm 1 mps 688 mmHg 74%
    03:00 +18°C° 0 mm 1 mps 688 mmHg 73%
    04:00 +16°C° 0 mm 1 mps 688 mmHg 72%
    05:00 +19°C° 0 mm 1 mps 688 mmHg 66%
    06:00 +20°C° 0 mm 1 mps 688 mmHg 60%
    07:00 +21°C° 0 mm 1 mps 689 mmHg 51%
    08:00 +23°C° 0 mm 1 mps 689 mmHg 44%
    09:00 +25°C° 0 mm 1 mps 690 mmHg 38%
    10:00 +27°C° 0 mm 2 mps 691 mmHg 31%
    11:00 +28°C° 0 mm 2 mps 691 mmHg 30%
    12:00 +28°C° 0 mm 2 mps 691 mmHg 28%
    13:00 +29°C° 0 mm 2 mps 691 mmHg 27%
    14:00 +28°C° 0 mm 2 mps 690 mmHg 30%
    15:00 +27°C° 0 mm 2 mps 690 mmHg 32%
    16:00 +27°C° 0 mm 2 mps 690 mmHg 35%
    17:00 +25°C° 0 mm 2 mps 689 mmHg 42%
    18:00 +23°C° 0 mm 1 mps 689 mmHg 49%
    19:00 +21°C° 0 mm 1 mps 689 mmHg 56%
    20:00 +20°C° 0 mm 1 mps 689 mmHg 57%
    21:00 +20°C° 0 mm 1 mps 689 mmHg 57%
    22:00 +18°C° 0 mm 0 mps 689 mmHg 58%
    23:00 +19°C° 0 mm 1 mps 688 mmHg 59%

    Tomorrow, 24 September, Monday

    Time Temperature Precipitation Wind Pressure Humidity
    00:00 +19°C° 0 mm 1 mps 688 mmHg 61%
    01:00 +19°C° 0 mm 1 mps 688 mmHg 62%
    02:00 +18°C° 0 mm 1 mps 687 mmHg 64%
    03:00 +18°C° 0 mm 1 mps 687 mmHg 67%
    04:00 +18°C° 0 mm 1 mps 687 mmHg 70%
    05:00 +19°C° 0 mm 1 mps 687 mmHg 68%
    06:00 +20°C° 0 mm 1 mps 687 mmHg 66%
    07:00 +21°C° 0 mm 1 mps 687 mmHg 64%
    08:00 +23°C° 0 mm 1 mps 687 mmHg 56%
    09:00 +24°C° 0 mm 1 mps 688 mmHg 49%
    10:00 +26°C° 0 mm 2 mps 688 mmHg 41%
    11:00 +27°C° 0 mm 2 mps 688 mmHg 39%
    12:00 +28°C° 0 mm 2 mps 687 mmHg 36%
    13:00 +28°C° 0 mm 3 mps 687 mmHg 34%
    14:00 +27°C° 0 mm 2 mps 687 mmHg 38%
    15:00 +26°C° 0 mm 2 mps 686 mmHg 41%
    16:00 +26°C° 0 mm 2 mps 686 mmHg 44%
    17:00 +24°C° 0 mm 2 mps 686 mmHg 54%
    18:00 +21°C° 0 mm 2 mps 686 mmHg 63%
    19:00 +20°C° 0 mm 1 mps 686 mmHg 73%
    20:00 +20°C° 0 mm 1 mps 686 mmHg 77%
    21:00 +19°C° 0 mm 1 mps 686 mmHg 80%
    22:00 +19°C° 0 mm 1 mps 686 mmHg 84%
    23:00 +19°C° 0 mm 1 mps 686 mmHg 84%

    Day after tomorrow, 25 September, Tuesday

    Time Temperature Precipitation Wind Pressure Humidity
    00:00 +19°C° 0 mm 1 mps 686 mmHg 84%
    01:00 +18°C° 0 mm 1 mps 686 mmHg 84%
    02:00 +18°C° 0 mm 1 mps 686 mmHg 83%
    03:00 +17°C° 0 mm 2 mps 686 mmHg 82%
    04:00 +17°C° 0 mm 2 mps 686 mmHg 80%
    05:00 +17°C° 0 mm 2 mps 687 mmHg 75%
    06:00 +18°C° 0 mm 3 mps 687 mmHg 69%
    07:00 +19°C° 0 mm 3 mps 688 mmHg 63%
    08:00 +20°C° 0 mm 3 mps 689 mmHg 58%
    09:00 +21°C° 0 mm 3 mps 689 mmHg 53%
    10:00 +22°C° 0 mm 3 mps 690 mmHg 48%
    11:00 +22°C° 0 mm 3 mps 690 mmHg 47%
    12:00 +24°C° 0 mm 3 mps 690 mmHg 46%
    13:00 +24°C° 0 mm 3 mps 690 mmHg 45%
    14:00 +22°C° 0 mm 3 mps 689 mmHg 48%
    15:00 +21°C° 0 mm 3 mps 689 mmHg 51%
    16:00 +20°C° 0 mm 3 mps 689 mmHg 54%
    17:00 +19°C° 0.1 mm 3 mps 689 mmHg 57%
    18:00 +18°C° 0.1 mm 3 mps 689 mmHg 61%
    19:00 +16°C° 0.1 mm 3 mps 689 mmHg 65%
    20:00 +16°C° 0 mm 3 mps 690 mmHg 65%
    21:00 +14°C° 0 mm 3 mps 690 mmHg 66%
    22:00 +14°C° 0 mm 3 mps 690 mmHg 66%
    23:00 +13°C° 0 mm 3 mps 690 mmHg 65%

    26 September, Wednesday

    Time Temperature Precipitation Wind Pressure Humidity
    00:00 +13°C° 0 mm 3 mps 690 mmHg 63%
    01:00 +12°C° 0 mm 3 mps 690 mmHg 62%
    02:00 +12°C° 0 mm 3 mps 690 mmHg 62%
    03:00 +12°C° 0 mm 4 mps 690 mmHg 62%
    04:00 +11°C° 0 mm 4 mps 690 mmHg 61%
    05:00 +11°C° 0 mm 4 mps 691 mmHg 59%
    06:00 +12°C° 0 mm 4 mps 691 mmHg 57%
    07:00 +12°C° 0 mm 4 mps 691 mmHg 55%
    08:00 +13°C° 0 mm 5 mps 692 mmHg 51%
    09:00 +14°C° 0 mm 5 mps 693 mmHg 47%
    10:00 +15°C° 0 mm 5 mps 693 mmHg 43%
    11:00 +15°C° 0 mm 5 mps 693 mmHg 41%
    12:00 +16°C° 0 mm 5 mps 693 mmHg 39%
    13:00 +16°C° 0 mm 5 mps 693 mmHg 37%
    14:00 +15°C° 0 mm 5 mps 693 mmHg 38%
    15:00 +15°C° 0 mm 5 mps 692 mmHg 38%
    16:00 +14°C° 0 mm 4 mps 692 mmHg 39%
    17:00 +13°C° 0 mm 4 mps 692 mmHg 42%
    18:00 +11°C° 0 mm 4 mps 692 mmHg 44%
    19:00 +10°C° 0 mm 3 mps 692 mmHg 47%
    20:00 +10°C° 0 mm 3 mps 692 mmHg 48%
    21:00 +9°C° 0 mm 3 mps 692 mmHg 49%
    22:00 +9°C° 0 mm 3 mps 693 mmHg 50%
    23:00 +9°C° 0 mm 3 mps 692 mmHg 51%

    27 September, Thursday

    Time Temperature Precipitation Wind Pressure Humidity
    00:00 +8°C° 0 mm 3 mps 692 mmHg 53%
    01:00 +8°C° 0 mm 3 mps 692 mmHg 54%
    02:00 +8°C° 0 mm 3 mps 692 mmHg 56%
    03:00 +8°C° 0 mm 3 mps 691 mmHg 58%
    04:00 +7°C° 0 mm 3 mps 691 mmHg 61%
    05:00 +8°C° 0 mm 3 mps 691 mmHg 58%
    06:00 +9°C° 0 mm 3 mps 691 mmHg 56%
    07:00 +9°C° 0 mm 3 mps 691 mmHg 53%
    08:00 +11°C° 0 mm 3 mps 692 mmHg 45%
    09:00 +13°C° 0 mm 3 mps 692 mmHg 37%
    10:00 +16°C° 0 mm 3 mps 692 mmHg 29%
    11:00 +17°C° 0 mm 4 mps 692 mmHg 26%
    12:00 +18°C° 0 mm 4 mps 691 mmHg 22%
    13:00 +18°C° 0 mm 4 mps 691 mmHg 18%
    14:00 +18°C° 0 mm 4 mps 690 mmHg 18%
    15:00 +18°C° 0 mm 4 mps 690 mmHg 18%
    16:00 +17°C° 0 mm 4 mps 689 mmHg 18%
    17:00 +16°C° 0 mm 3 mps 689 mmHg 22%
    18:00 +13°C° 0 mm 3 mps 689 mmHg 25%
    19:00 +12°C° 0 mm 2 mps 688 mmHg 29%
    20:00 +12°C° 0 mm 2 mps 688 mmHg 30%
    21:00 +10°C° 0 mm 2 mps 688 mmHg 31%
    22:00 +10°C° 0 mm 2 mps 687 mmHg 32%
    23:00 +10°C° 0 mm 2 mps 687 mmHg 33%

    28 September, Friday

    Time Temperature Precipitation Wind Pressure Humidity
    00:00 +9°C° 0 mm 2 mps 687 mmHg 34%
    01:00 +9°C° 0 mm 2 mps 686 mmHg 35%
    02:00 +9°C° 0 mm 2 mps 686 mmHg 38%
    03:00 +9°C° 0 mm 2 mps 686 mmHg 40%
    04:00 +9°C° 0 mm 2 mps 686 mmHg 43%
    05:00 +10°C° 0 mm 2 mps 686 mmHg 42%
    06:00 +12°C° 0 mm 2 mps 686 mmHg 42%
    07:00 +13°C° 0 mm 2 mps 687 mmHg 42%
    08:00 +15°C° 0 mm 2 mps 687 mmHg 35%
    09:00 +17°C° 0 mm 2 mps 688 mmHg 29%
    10:00 +19°C° 0 mm 2 mps 688 mmHg 22%
    11:00 +20°C° 0 mm 2 mps 688 mmHg 20%
    12:00 +20°C° 0 mm 2 mps 688 mmHg 19%
    13:00 +21°C° 0 mm 3 mps 688 mmHg 18%
    14:00 +20°C° 0 mm 3 mps 687 mmHg 19%
    15:00 +20°C° 0 mm 3 mps 687 mmHg 20%
    16:00 +19°C° 0 mm 3 mps 687 mmHg 21%
    17:00 +18°C° 0 mm 2 mps 687 mmHg 26%
    18:00 +16°C° 0 mm 2 mps 686 mmHg 30%
    19:00 +14°C° 0 mm 1 mps 686 mmHg 35%
    20:00 +14°C° 0 mm 1 mps 686 mmHg 36%
    21:00 +13°C° 0 mm 1 mps 686 mmHg 38%
    22:00 +13°C° 0 mm 1 mps 686 mmHg 39%
    23:00 +12°C° 0 mm 1 mps 686 mmHg 39%
    Show more